Probability
0 0 0 0 0 0 0 0 3 26 42 39 45 65 68 68 68 65 71 71 68 58 61 68 71 68 74 84 81 74 81 84 77 74 55 48 35 32 29 26 26 26 23 23
0 0 0 0 0 0 0 0 6 29 39 45 45 48 61 61 52 45 52 48 58 55 52 58 65 52 65 71 74 74 74 71 65 65 58 52 29 23 26 23 29 16 13 16
0 0 0 0 0 0 3 3 3 16 35 42 42 39 48 45 39 35 29 32 29 29 32 35 39 35 55 55 58 35 65 65 68 65 35 32 42 32 10 13 16 16 10 6
0 0 0 0 0 0 0 0 3 6 23 16 10 10 35 39 32 23 19 13 13 23 16 16 26 26 26 32 39 48 61 61 68 52 39 23 26 13 19 13 13 13 3 3
0 0 0 0 0 0 0 0 3 10 10 6 3 6 10 23 23 10 10 6 10 10 10 13 26 26 29 32 32 42 52 58 58 52 52 55 13 13 10 10 13 13 3 3
0 0 0 0 0 0 0 0 3 3 0 0 0 0 0 10 10 6 10 6 6 3 3 6 23 35 32 39 39 39 58 52 48 48 42 35 32 29 13 16 13 10 0 0
0 0 0 0 0 0 0 3 0 0 0 0 0 0 0 3 3 10 6 0 3 3 3 16 29 42 35 42 39 39 39 35 26 23 16 19 13 13 13 13 3 3 0 3
0 0 0 0 0 0 0 0 0 0 0 0 0 0 0 3 3 3 10 3 3 0 16 23 35 26 29 29 29 23 16 16 13 13 13 6 6 3 3 3 3 0 0 0
0 0 0 0 0 0 3 3 0 0 0 0 0 0 0 0 0 0 6 0 0 0 10 10 13 19 16 13 16 13 13 10 10 10 3 3 3 3 3 3 3 0 0 0
0 0 0 0 0 0 0 0 0 0 0 0 0 0 0 0 0 0 0 0 0 3 6 3 6 6 6 13 13 10 10 6 3 3 3 3 0 3 3 0 0 0 0 0
0 0 0 0 0 0 0 0 0 0 0 0 0 0 0 0 0 0 0 0 0 3 3 0 6 6 6 3 3 3 3 3 3 0 0 0 0 0 0 0 0 0 0 0
0 0 0 0 0 0 0 0 0 0 0 0 0 0 0 0 0 0 0 0 0 3 0 0 0 3 3 3 0 3 0 0 0 0 0 0 0 0 0 0 0 0 0 0
0 0 0 0 0 0 0 0 0 0 0 0 0 0 0 0 0 0 0 0 0 3 0 0 0 0 0 0 0 0 0 0 0 0 0 0 0 0 0 0 0 0 0 0
0 0 0 0 0 0 0 0 0 0 0 0 0 0 0 0 0 0 0 0 0 0 0 0 0 0 0 0 0 0 0 0 0 0 0 0 0 0 0 0 0 0 0 0
0 0 0 0 0 0 0 0 0 0 0 0 0 0 0 0 0 0 0 0 0 0 0 0 0 3 3 0 0 0 0 0 0 0 0 0 0 0 0 0 0 0 0 0
0 0 0 0 0 0 0 0 0 0 0 0 0 0 0 0 0 0 0 0 0 0 0 0 0 3 3 3 0 0 0 0 0 0 0 0 0 0 0 0 0 0 0 0
0 3 0 0 0 0 0 0 0 0 0 0 0 0 0 0 0 0 0 0 0 0 0 0 0 0 3 0 0 0 0 0 0 0 0 0 0 0 0 0 0 0 0 0
3 3 0 0 0 0 0 0 0 0 0 0 0 0 0 0 0 0 0 0 0 0 0 0 0 0 0 0 0 0 0 0 0 0 0 0 0 0 0 0 0 0 0 0
3 10 0 0 0 0 0 0 0 0 0 0 0 0 0 0 0 0 0 0 0 0 0 0 0 0 0 0 0 0 0 0 0 0 0 0 0 0 0 0 0 0 0 0
6 26 3 0 0 0 0 0 0 0 0 0 0 0 0 0 0 0 0 0 0 0 0 0 0 0 0 0 0 0 0 0 0 0 0 0 0 0 0 0 0 0 0 0
16 19 10 0 0 0 0 0 0 0 0 0 0 0 0 0 0 0 0 0 0 0 0 0 0 0 0 0 0 0 0 0 0 0 0 0 0 0 0 0 0 0 0 0
0 0 0 0 0 0 0 0 0 3 13 3 0 0 0 0 0 0 0 0 0 0 0 0 0 0 0 0 0 0 0 0 0 0 0 0 0 0 0 0 0 0 0 0
0 0 0 3 3 19 0 0 0 6 6 3 0 0 0 0 0 0 0 0 0 0 0 0 0 0 0 0 0 0 0 0 0 0 0 0 0 0 0 0 0 0 0 0
0 0 3 6 0 3 3 0 0 0 0 0 0 0 0 0 0 0 0 0 0 0 0 0 0 0 0 0 0 0 0 0 0 0 0 0 0 0 0 0 0 0 0 0
0 0 0 0 0 3 3 0 0 0 0 0 0 0 0 0 0 0 0 0 0 0 0 0 0 0 0 0 0 0 0 0 0 0 0 0 0 0 0 0 0 0 0 0
0 0 0 0 10 3 3 0 0 0 0 0 0 0 0 0 0 0 0 0 0 0 0 0 0 0 0 0 0 0 0 0 0 0 0 0 0 0 0 0 0 0 0 0
Height
5884 5884 5882 5881 5879 5878 5876 5875 5873 5871 5869 5869 5868 5868 5868 5868 5869 5870 5871 5872 5872 5872 5872 5872 5872 5871 5870 5869 5868 5867 5865 5864 5863 5862 5859 5857 5855 5853 5851 5849 5847 5845 5843 5841
5885 5884 5882 5880 5878 5876 5875 5874 5872 5870 5869 5868 5867 5866 5866 5865 5866 5867 5867 5868 5868 5868 5868 5868 5868 5867 5867 5865 5864 5863 5861 5860 5858 5857 5854 5852 5850 5847 5845 5843 5840 5838 5836 5834
5885 5884 5881 5879 5877 5875 5874 5873 5872 5870 5868 5867 5866 5865 5864 5863 5863 5864 5864 5865 5864 5864 5865 5865 5865 5864 5863 5862 5861 5859 5857 5855 5854 5852 5849 5847 5845 5842 5839 5836 5834 5831 5828 5826
5884 5882 5880 5878 5877 5875 5874 5872 5871 5869 5868 5867 5866 5865 5863 5862 5862 5862 5862 5862 5862 5862 5862 5862 5862 5861 5860 5859 5857 5855 5854 5852 5850 5847 5845 5842 5839 5836 5833 5830 5827 5824 5822 5819
5883 5881 5879 5878 5876 5874 5873 5871 5870 5868 5867 5866 5865 5865 5865 5862 5861 5860 5860 5859 5860 5860 5860 5860 5859 5858 5857 5855 5854 5852 5850 5848 5846 5843 5840 5837 5834 5831 5827 5824 5821 5818 5815 5812
5881 5879 5878 5876 5875 5873 5872 5871 5870 5868 5867 5868 5866 5865 5864 5861 5860 5859 5858 5858 5858 5858 5858 5857 5857 5856 5854 5853 5851 5848 5846 5844 5841 5838 5834 5831 5828 5825 5821 5818 5815 5812 5808 5805
5880 5878 5876 5875 5873 5872 5871 5871 5872 5871 5870 5868 5866 5864 5864 5861 5859 5858 5857 5857 5856 5856 5856 5855 5854 5853 5851 5850 5848 5845 5842 5839 5836 5833 5830 5826 5823 5819 5816 5812 5809 5805 5801 5798
5879 5878 5875 5873 5872 5871 5870 5870 5871 5871 5870 5867 5865 5864 5863 5860 5858 5857 5856 5856 5855 5854 5854 5853 5851 5850 5848 5846 5844 5841 5838 5835 5831 5828 5825 5821 5817 5814 5810 5806 5802 5798 5794 5791
5876 5875 5872 5871 5870 5870 5869 5869 5868 5868 5867 5867 5865 5863 5861 5859 5858 5857 5856 5855 5854 5853 5852 5850 5849 5847 5845 5843 5840 5837 5834 5831 5827 5824 5820 5816 5812 5808 5804 5800 5795 5791 5787 5783
5873 5872 5870 5869 5868 5868 5867 5867 5867 5867 5867 5867 5865 5862 5861 5858 5857 5856 5855 5854 5852 5851 5850 5848 5846 5844 5842 5839 5837 5834 5830 5827 5823 5819 5815 5811 5806 5802 5797 5793 5788 5783 5779 5774
5869 5869 5869 5867 5866 5866 5865 5865 5865 5865 5864 5866 5866 5865 5860 5858 5856 5855 5853 5852 5851 5849 5848 5846 5844 5841 5839 5836 5833 5830 5826 5822 5818 5814 5809 5805 5800 5796 5791 5786 5780 5775 5770 5765
5866 5866 5866 5865 5863 5863 5862 5862 5863 5863 5862 5862 5863 5864 5857 5856 5855 5853 5852 5850 5849 5847 5845 5843 5841 5838 5835 5832 5829 5825 5821 5817 5813 5809 5804 5799 5794 5789 5783 5778 5772 5766 5760 5754
5863 5864 5864 5864 5864 5861 5860 5860 5860 5860 5860 5860 5861 5862 5855 5854 5853 5851 5849 5848 5846 5844 5842 5840 5837 5834 5831 5828 5824 5821 5816 5812 5807 5803 5798 5792 5787 5781 5775 5769 5763 5757 5750 5744
5860 5860 5861 5863 5861 5859 5858 5857 5857 5857 5858 5858 5858 5857 5854 5851 5850 5848 5847 5845 5843 5841 5839 5836 5834 5831 5827 5824 5820 5816 5811 5807 5802 5797 5791 5786 5780 5773 5767 5761 5754 5747 5740 5734
5857 5857 5857 5856 5855 5855 5854 5854 5854 5854 5854 5854 5854 5852 5851 5848 5847 5845 5843 5841 5839 5837 5835 5832 5829 5826 5823 5819 5815 5810 5806 5801 5796 5790 5785 5779 5772 5766 5759 5752 5745 5737 5730 5723
5853 5853 5853 5853 5852 5851 5851 5851 5850 5850 5850 5850 5850 5849 5847 5845 5843 5841 5840 5838 5835 5833 5831 5828 5825 5821 5818 5814 5809 5805 5800 5795 5790 5784 5778 5772 5765 5758 5750 5743 5736 5728 5720 5713
5850 5849 5849 5850 5850 5849 5849 5848 5847 5847 5846 5846 5846 5845 5842 5841 5839 5837 5835 5833 5831 5829 5826 5823 5820 5816 5813 5808 5804 5799 5794 5789 5783 5778 5771 5764 5757 5750 5742 5734 5726 5718 5711 5703
5846 5846 5845 5846 5847 5846 5848 5844 5844 5843 5843 5842 5841 5840 5838 5836 5835 5833 5831 5829 5826 5824 5821 5818 5815 5811 5807 5803 5798 5793 5788 5783 5777 5771 5764 5757 5749 5741 5733 5725 5717 5709 5701 5694
5841 5842 5842 5843 5843 5843 5843 5841 5840 5839 5839 5838 5836 5835 5833 5832 5830 5828 5826 5824 5821 5819 5816 5813 5809 5805 5801 5797 5792 5788 5782 5777 5771 5764 5757 5749 5741 5733 5725 5716 5708 5700 5692 5685
5837 5837 5838 5838 5839 5840 5840 5837 5836 5836 5835 5833 5832 5830 5829 5827 5826 5824 5821 5818 5816 5813 5810 5807 5803 5799 5795 5791 5786 5781 5776 5770 5763 5757 5749 5741 5733 5725 5716 5708 5700 5692 5684 5676
5832 5833 5833 5833 5833 5834 5833 5832 5832 5833 5832 5828 5827 5825 5824 5822 5821 5819 5815 5813 5810 5807 5804 5800 5797 5793 5789 5785 5780 5774 5769 5763 5756 5749 5741 5733 5725 5717 5708 5700 5692 5683 5675 5668
5827 5828 5828 5828 5829 5831 5826 5827 5827 5826 5824 5822 5820 5819 5817 5816 5814 5812 5809 5806 5804 5801 5798 5794 5791 5787 5782 5778 5773 5767 5761 5755 5748 5741 5733 5725 5717 5709 5700 5692 5684 5676 5668 5660
5821 5822 5822 5823 5824 5821 5821 5820 5819 5818 5817 5816 5814 5813 5811 5809 5807 5805 5802 5800 5797 5794 5791 5787 5783 5779 5775 5770 5765 5759 5753 5747 5740 5733 5725 5717 5709 5700 5692 5684 5676 5668 5661 5653
5814 5814 5815 5815 5815 5814 5814 5813 5812 5812 5811 5809 5808 5806 5804 5802 5800 5798 5795 5793 5790 5787 5783 5780 5776 5771 5767 5762 5756 5751 5745 5739 5732 5724 5717 5709 5701 5693 5684 5676 5668 5661 5653 5646
5806 5807 5808 5808 5808 5807 5806 5806 5805 5804 5803 5802 5800 5799 5797 5795 5793 5790 5788 5785 5782 5779 5775 5772 5768 5764 5759 5754 5748 5743 5736 5730 5723 5716 5708 5700 5693 5685 5677 5669 5661 5654 5647 5639
5799 5800 5801 5800 5800 5800 5799 5798 5797 5796 5795 5794 5793 5791 5789 5787 5785 5782 5780 5777 5774 5771 5767 5763 5759 5755 5750 5745 5739 5734 5728 5721 5714 5707 5700 5692 5684 5677 5669 5662 5655 5647 5641 5634
Wind_Speed
11 11 10 9 8 8 8 7 8 8 7 6 7 9 10 13 14 15 15 15 16 17 17 17 17 15 15 16 16 16 17 17 17 18 19 19 20 21 23 24 25 26 26 27
9 9 8 8 8 7 8 7 8 8 7 7 7 8 10 11 12 13 13 13 13 14 15 14 13 13 14 14 15 15 16 17 18 19 19 20 22 23 24 26 26 27 27 28
6 7 8 8 7 7 7 7 7 7 7 7 7 7 8 8 9 10 11 12 13 14 13 12 12 13 13 14 15 17 17 17 18 19 20 22 23 24 25 27 27 28 28 29
6 7 8 8 7 7 7 6 7 7 7 7 6 7 6 5 6 7 9 10 10 11 10 11 12 13 13 15 16 17 17 17 18 20 21 23 24 25 26 27 28 28 29 29
7 7 7 8 7 7 7 7 7 7 7 6 6 6 6 6 6 7 7 7 8 9 10 11 11 12 13 15 16 16 17 18 20 21 23 23 24 25 26 27 27 28 28 28
7 7 7 8 8 8 7 7 7 7 6 6 7 7 8 7 6 5 6 6 7 8 9 10 11 13 14 15 16 17 19 20 21 22 23 23 24 24 25 26 27 27 28 28
9 9 8 8 9 8 7 6 6 7 7 7 7 7 8 8 7 7 7 7 7 8 10 11 13 14 14 16 17 18 20 21 22 22 23 23 24 25 26 27 27 27 28 29
8 10 10 9 9 8 7 5 4 4 5 8 8 8 9 9 9 8 8 7 8 9 11 12 13 14 15 16 18 19 20 21 22 22 23 23 24 26 26 27 27 28 29 30
9 11 11 10 9 8 7 6 5 5 6 7 8 9 9 9 9 8 8 9 10 11 12 13 14 15 16 17 19 19 21 22 22 23 23 24 25 27 27 28 28 29 30 31
10 10 11 10 9 9 8 7 5 3 4 5 9 9 9 9 9 9 9 10 11 12 12 13 14 15 17 18 19 20 21 21 22 23 24 25 26 27 28 29 30 31 32 33
10 9 10 10 9 9 8 6 5 4 5 2 5 9 9 9 9 10 10 10 11 11 12 13 15 16 17 18 19 20 21 22 23 24 25 26 28 29 30 31 33 34 35 36
9 8 9 10 10 8 7 6 6 5 6 5 4 10 10 9 10 10 10 11 11 12 12 14 15 16 17 18 19 21 22 23 24 25 27 28 30 32 33 35 36 37 38 38
10 9 7 9 10 10 9 8 8 7 7 7 6 10 12 11 11 11 11 12 12 12 13 14 15 16 18 19 21 22 23 24 25 27 29 31 33 34 36 37 38 39 40 40
11 10 8 9 11 11 10 10 9 9 8 9 10 12 13 13 13 12 12 13 13 13 14 15 16 17 19 20 21 23 24 25 27 29 32 34 35 37 38 39 40 41 42 42
12 11 11 11 11 11 11 12 11 11 11 11 12 13 14 14 14 13 13 13 14 14 15 16 17 19 20 21 23 24 26 27 29 31 34 36 37 39 41 41 42 43 43 42
13 12 11 11 11 11 10 11 11 12 13 13 13 14 14 15 14 14 14 14 15 15 16 18 19 20 21 23 24 26 28 29 32 34 36 38 40 41 42 43 43 43 43 43
13 12 11 10 11 11 10 11 12 12 13 13 13 15 15 15 15 15 15 15 16 16 18 19 20 21 23 24 26 28 29 31 34 36 38 40 42 43 44 44 44 44 43 42
14 13 12 10 11 11 12 13 12 13 13 14 15 15 16 16 16 16 16 16 17 18 19 20 22 23 24 25 27 29 31 33 35 37 39 41 43 44 44 45 44 44 43 41
15 14 13 12 11 12 13 14 13 14 14 16 16 17 17 17 17 17 17 17 18 19 20 22 23 24 25 27 28 30 32 34 36 39 41 43 44 45 45 45 44 44 42 40
16 15 15 15 14 13 15 16 15 15 16 18 18 19 19 18 18 18 18 19 19 21 22 23 24 26 27 28 30 31 33 35 38 41 43 44 45 46 46 45 45 43 41 40
18 17 17 17 17 16 19 17 17 17 19 20 20 20 20 19 19 20 20 20 21 22 24 25 26 27 28 29 31 33 35 38 40 43 45 46 46 47 46 46 44 43 41 39
19 19 19 19 19 19 21 19 19 21 22 22 22 22 22 21 21 22 22 22 23 24 25 26 28 28 29 31 33 35 37 40 42 45 46 47 47 47 47 46 44 42 40 38
21 21 21 20 21 23 22 22 22 23 23 23 23 23 24 23 24 24 24 25 25 26 27 28 29 30 32 33 34 36 39 41 44 46 47 48 48 47 47 46 43 41 40 38
23 23 23 23 24 24 24 24 24 24 24 24 25 25 25 26 26 26 27 27 28 29 30 31 32 33 35 36 37 38 41 43 46 47 48 49 48 48 46 45 43 41 39 37
26 25 24 24 25 25 26 26 25 25 25 26 26 27 28 28 28 28 29 29 31 32 33 34 35 37 38 38 39 41 43 45 47 48 50 50 49 47 45 43 42 40 38 36
26 26 26 27 27 26 27 27 27 27 27 27 28 28 29 29 29 30 31 32 33 34 35 36 38 40 41 40 42 44 46 47 48 50 51 50 49 47 44 42 41 39 37 36
Wind_Direction
353 351 347 337 338 334 332 339 336 328 329 307 284 272 265 256 248 249 254 255 257 260 266 272 279 285 287 291 290 292 293 292 293 296 298 300 299 298 297 296 295 294 293 291
356 353 346 343 342 341 343 349 342 336 332 319 300 289 279 269 259 254 252 256 261 265 271 278 282 288 293 295 297 301 302 301 301 301 303 304 302 301 300 299 299 297 296 294
345 335 339 343 347 344 341 340 335 331 333 324 314 305 295 281 262 254 255 260 261 268 274 280 291 297 300 301 304 307 307 306 306 306 306 304 303 301 301 301 300 300 299 297
333 332 336 338 339 343 341 338 342 339 342 340 342 331 317 300 279 270 269 269 269 273 280 292 298 301 304 307 306 307 308 309 309 308 306 305 304 302 302 302 301 300 299 297
322 325 327 329 331 336 335 335 334 338 342 347 346 345 337 327 306 292 284 279 278 283 292 297 299 303 305 308 310 309 309 309 309 308 307 307 306 305 304 303 302 300 298 296
309 315 314 315 322 325 330 329 333 342 354 346 338 340 333 336 331 315 309 300 292 294 298 302 303 305 307 309 309 309 310 310 311 311 311 310 310 308 307 306 305 303 301 299
307 312 307 306 313 317 321 340 349 345 338 318 325 329 327 336 338 334 327 320 314 309 307 306 306 308 309 309 309 310 311 313 314 314 313 313 312 311 310 308 307 305 303 302
294 300 299 299 303 306 310 318 313 309 306 309 317 319 323 327 332 336 336 330 321 314 310 310 311 311 310 309 310 312 314 315 315 315 315 315 315 314 312 310 309 307 305 303
281 286 290 289 289 292 294 293 290 306 314 317 309 312 319 325 329 330 328 324 319 316 312 310 309 309 309 310 312 314 315 316 316 316 316 316 316 316 315 314 312 311 309 306
279 286 288 284 281 282 279 280 283 296 299 308 311 315 318 322 327 327 325 322 317 314 310 308 308 309 311 313 314 315 317 317 318 318 318 319 319 318 317 316 315 314 311 308
280 283 289 286 280 276 271 265 265 271 267 261 301 298 307 314 320 324 323 319 314 311 308 307 308 312 314 315 316 317 319 320 321 322 322 322 322 321 320 319 317 315 313 310
280 279 277 281 278 269 264 259 262 268 274 275 284 292 300 307 312 316 316 312 309 308 308 309 312 314 316 317 318 320 322 323 324 324 324 323 323 322 321 319 318 316 313 311
278 277 289 294 289 275 266 264 262 261 266 275 279 285 293 299 304 308 308 308 308 308 309 312 314 316 318 320 321 323 324 325 325 326 326 325 324 323 322 321 319 317 315 313
276 272 260 255 259 265 270 271 263 259 267 271 272 275 287 295 301 304 304 304 306 308 310 313 316 318 320 322 324 325 326 327 327 328 328 327 326 325 324 322 321 319 317 314
276 273 269 267 265 265 267 268 263 259 259 261 267 276 285 293 300 303 302 302 304 307 311 314 316 319 321 324 326 328 328 329 329 328 328 328 327 326 326 324 322 320 318 316
273 269 266 269 269 267 267 268 266 263 265 268 273 279 285 292 297 300 300 300 302 306 310 314 317 320 322 324 327 329 329 330 329 329 328 328 328 327 326 325 324 322 320 318
270 268 265 267 268 268 271 265 266 267 268 272 276 281 288 293 297 298 298 299 302 306 310 313 317 319 321 323 326 328 329 329 329 329 328 328 328 327 327 326 325 324 322 320
264 263 263 262 262 266 262 263 267 269 272 276 280 286 290 294 295 296 297 299 302 306 309 313 316 318 320 323 326 327 328 328 328 329 329 329 329 328 328 327 327 326 324 322
261 259 258 257 263 269 269 267 270 273 275 279 284 287 290 293 294 295 296 299 302 306 310 313 315 317 320 322 323 325 327 328 328 329 330 331 330 330 329 328 328 327 325 324
259 257 255 255 256 259 261 266 272 277 280 280 283 287 289 292 294 295 296 299 303 306 309 312 314 316 318 320 322 324 326 327 329 330 331 332 331 331 330 330 329 328 326 325
259 257 257 258 261 260 260 266 273 279 276 279 283 285 288 291 292 293 296 299 303 306 309 311 313 315 317 319 321 323 325 326 328 330 331 332 332 331 331 330 330 328 327 326
259 260 260 259 263 259 262 269 272 274 278 282 284 286 289 292 293 294 297 300 303 306 308 310 312 314 316 318 319 322 324 326 327 329 330 331 331 331 331 331 330 329 328 327
258 257 258 259 261 263 268 271 273 276 280 282 285 287 290 293 294 296 298 300 303 306 308 309 310 313 315 316 318 321 323 325 327 328 330 330 331 331 331 331 330 329 328 328
262 259 261 262 264 268 271 273 276 278 280 283 285 288 291 293 294 296 298 300 303 304 306 308 309 310 313 315 317 319 322 324 326 327 328 329 329 330 330 330 330 330 329 328
260 262 263 265 267 270 273 275 278 280 282 284 286 288 290 292 293 294 297 299 302 303 305 306 307 309 311 313 315 318 321 323 324 326 327 328 328 329 329 329 330 329 329 329
261 263 264 266 269 270 273 276 278 280 281 283 285 286 289 291 292 294 295 297 299 301 302 304 306 308 309 310 314 317 319 320 322 324 325 325 326 327 328 328 328 328 329 329